Dades meteomassalio
Diari Summary for Maig 15, 2017 Units:  Metric    English   Both
« Previous Day
Next Day »
Diari Semanal Mensual Anual Personalitzat
  Maxima: Minima: Mijana:
Temperatura: 29.6 °C 11.0 °C 21 °C
Rosada: 13.1 °C 8.4 °C 10.6 °C
Humitat: 86 % 29 % 55 %
Velocitat del vent: 25.9 km/h 0.0 km/h 6.2 km/h
Racha vent: 25.9 km/h - -
Vent:- - ESE
Pressio: 1027.3 hPa 1023.6 hPa -
Pluja: 0.0 mm    
Historical Graphs
 
 
Tabular Data for Maig 15, 2017
Time Temperature Dew Point Pressure Wind Wind Speed Wind Gust Humidity Rainfall Rate (Hourly) solar Conditions
00:03 19.1 °C 11.6 °C 1024.9 hPa Calm     62 % 0.0 mm 0.0 W/m2 CLR
00:08 18.9 °C 11.5 °C 1024.9 hPa Calm     62 % 0.0 mm 0.0 W/m2 CLR
00:13 18.9 °C 11.4 °C 1024.9 hPa Calm     62 % 0.0 mm 0.0 W/m2 CLR
00:18 18.9 °C 11.4 °C 1024.9 hPa Calm     62 % 0.0 mm 0.0 W/m2 CLR
00:23 18.5 °C 11.3 °C 1024.9 hPa Calm     63 % 0.0 mm 0.0 W/m2 CLR
00:28 18.1 °C 11.4 °C 1024.9 hPa Calm     65 % 0.0 mm 0.0 W/m2 CLR
00:33 17.8 °C 11.3 °C 1024.9 hPa Calm     66 % 0.0 mm 0.0 W/m2 CLR
00:38 17.6 °C 11.1 °C 1024.9 hPa Calm     66 % 0.0 mm 0.0 W/m2 CLR
00:43 17.3 °C 11.2 °C 1024.9 hPa Calm     67 % 0.0 mm 0.0 W/m2 CLR
00:48 17.0 °C 11.1 °C 1024.9 hPa Calm     68 % 0.0 mm 0.0 W/m2 CLR
00:53 16.8 °C 11.1 °C 1025.3 hPa Calm     69 % 0.0 mm 0.0 W/m2 CLR
00:58 16.6 °C 11.1 °C 1025.3 hPa Calm     70 % 0.0 mm 0.0 W/m2 CLR
01:03 16.4 °C 10.9 °C 1025.3 hPa Calm     70 % 0.0 mm 0.0 W/m2 CLR
01:08 16.3 °C 11.0 °C 1025.3 hPa Calm     71 % 0.0 mm 0.0 W/m2 CLR
01:13 16.1 °C 10.8 °C 1025.3 hPa Calm     71 % 0.0 mm 0.0 W/m2 CLR
01:18 15.9 °C 10.9 °C 1025.3 hPa Calm     72 % 0.0 mm 0.0 W/m2 CLR
01:23 15.8 °C 10.7 °C 1025.3 hPa Calm     72 % 0.0 mm 0.0 W/m2 CLR
01:28 15.6 °C 10.8 °C 1025.3 hPa Calm     73 % 0.0 mm 0.0 W/m2 CLR
01:33 15.5 °C 10.7 °C 1025.3 hPa Calm     73 % 0.0 mm 0.0 W/m2 CLR
01:38 15.3 °C 10.7 °C 1025.3 hPa Calm     74 % 0.0 mm 0.0 W/m2 CLR
01:44 15.2 °C 10.6 °C 1025.3 hPa Calm     74 % 0.0 mm 0.0 W/m2 CLR
01:49 15.1 °C 10.7 °C 1025.3 hPa Calm     75 % 0.0 mm 0.0 W/m2 CLR
01:54 15.1 °C 10.7 °C 1025.3 hPa Calm     75 % 0.0 mm 0.0 W/m2 CLR
01:59 14.9 °C 10.6 °C 1025.3 hPa Calm     75 % 0.0 mm 0.0 W/m2 CLR
02:04 14.8 °C 10.7 °C 1025.3 hPa Calm     76 % 0.0 mm 0.0 W/m2 CLR
02:09 14.7 °C 10.5 °C 1025.3 hPa Calm     76 % 0.0 mm 0.0 W/m2 CLR
02:14 14.6 °C 10.6 °C 1025.3 hPa Calm     77 % 0.0 mm 0.0 W/m2 CLR
02:19 14.4 °C 10.4 °C 1025.3 hPa Calm     77 % 0.0 mm 0.0 W/m2 CLR
02:24 14.3 °C 10.3 °C 1025.3 hPa Calm     77 % 0.0 mm 0.0 W/m2 CLR
02:29 14.2 °C 10.4 °C 1025.3 hPa Calm     78 % 0.0 mm 0.0 W/m2 CLR
02:34 14.0 °C 10.2 °C 1025.3 hPa Calm     78 % 0.0 mm 0.0 W/m2 CLR
02:39 13.9 °C 10.3 °C 1025.3 hPa Calm     79 % 0.0 mm 0.0 W/m2 CLR
02:44 13.9 °C 10.3 °C 1025.6 hPa Calm     79 % 0.0 mm 0.0 W/m2 CLR
02:49 13.8 °C 10.3 °C 1025.6 hPa Calm     79 % 0.0 mm 0.0 W/m2 CLR
02:54 13.8 °C 10.2 °C 1025.3 hPa Calm     79 % 0.0 mm 0.0 W/m2 CLR
02:59 13.7 °C 10.2 °C 1025.6 hPa Calm     79 % 0.0 mm 0.0 W/m2 CLR
03:04 13.8 °C 10.2 °C 1025.6 hPa Calm     79 % 0.0 mm 0.0 W/m2 CLR
03:09 13.6 °C 10.1 °C 1025.6 hPa Calm     79 % 0.0 mm 0.0 W/m2 CLR
03:14 13.6 °C 10.0 °C 1025.6 hPa Calm     79 % 0.0 mm 0.0 W/m2 CLR
03:19 13.5 °C 9.9 °C 1025.6 hPa Calm     79 % 0.0 mm 0.0 W/m2 CLR
03:24 13.4 °C 10.0 °C 1025.6 hPa Calm     80 % 0.0 mm 0.0 W/m2 CLR
03:29 13.3 °C 9.9 °C 1025.6 hPa Calm     80 % 0.0 mm 0.0 W/m2 CLR
03:34 13.2 °C 10.1 °C 1025.6 hPa Calm     81 % 0.0 mm 0.0 W/m2 CLR
03:39 13.2 °C 10.1 °C 1025.6 hPa Calm     81 % 0.0 mm 0.0 W/m2 CLR
03:44 13.3 °C 10.1 °C 1025.6 hPa Calm     81 % 0.0 mm 0.0 W/m2 CLR
03:49 13.3 °C 10.1 °C 1025.6 hPa Calm     81 % 0.0 mm 0.0 W/m2 CLR
03:54 13.2 °C 9.8 °C 1025.6 hPa Calm     80 % 0.0 mm 0.0 W/m2 CLR
03:59 13.1 °C 9.7 °C 1025.6 hPa Calm     80 % 0.0 mm 0.0 W/m2 CLR
04:04 13.0 °C 9.8 °C 1026.0 hPa Calm     81 % 0.0 mm 0.0 W/m2 CLR
04:09 12.8 °C 9.7 °C 1026.0 hPa Calm     81 % 0.0 mm 0.0 W/m2 CLR
04:14 12.7 °C 9.7 °C 1026.0 hPa Calm     82 % 0.0 mm 0.0 W/m2 CLR
04:19 12.6 °C 9.6 °C 1026.0 hPa Calm     82 % 0.0 mm 0.0 W/m2 CLR
04:24 12.5 °C 9.5 °C 1026.0 hPa Calm     82 % 0.0 mm 0.0 W/m2 CLR
04:29 12.4 °C 9.6 °C 1026.0 hPa Calm     83 % 0.0 mm 0.0 W/m2 CLR
04:34 12.3 °C 9.5 °C 1026.0 hPa Calm     83 % 0.0 mm 0.0 W/m2 CLR
04:39 12.2 °C 9.4 °C 1026.0 hPa Calm     83 % 0.0 mm 0.0 W/m2 CLR
04:44 12.2 °C 9.4 °C 1026.0 hPa Calm     83 % 0.0 mm 0.0 W/m2 CLR
04:49 12.1 °C 9.3 °C 1026.3 hPa Calm     83 % 0.0 mm 0.0 W/m2 CLR
04:54 12.0 °C 9.2 °C 1026.3 hPa Calm     83 % 0.0 mm 0.0 W/m2 CLR
04:59 11.9 °C 9.1 °C 1026.3 hPa Calm     83 % 0.0 mm 0.0 W/m2 CLR
05:04 11.8 °C 9.2 °C 1026.3 hPa Calm     84 % 0.0 mm 0.0 W/m2 CLR
05:09 11.8 °C 9.2 °C 1026.3 hPa Calm     84 % 0.0 mm 0.0 W/m2 CLR
05:14 11.7 °C 9.1 °C 1026.3 hPa Calm     84 % 0.0 mm 0.0 W/m2 CLR
05:15 11.7 °C 9.1 °C 1026.3 hPa Calm     84 % 0.0 mm 0.0 W/m2 CLR
05:20 11.7 °C 9.1 °C 1026.3 hPa Calm     84 % 0.0 mm 0.0 W/m2 CLR
05:25 11.6 °C 8.9 °C 1026.3 hPa Calm     84 % 0.0 mm 0.0 W/m2 CLR
05:30 11.4 °C 9.0 °C 1026.3 hPa Calm     85 % 0.0 mm 0.0 W/m2 CLR
05:35 11.4 °C 8.9 °C 1026.3 hPa Calm     85 % 0.0 mm 0.0 W/m2 CLR
05:40 11.3 °C 8.9 °C 1026.3 hPa Calm     85 % 0.0 mm 0.0 W/m2 CLR
05:45 11.3 °C 9.0 °C 1026.3 hPa Calm     86 % 0.0 mm 0.0 W/m2 CLR
05:50 11.2 °C 8.9 °C 1026.6 hPa Calm     86 % 0.0 mm 0.0 W/m2 CLR
05:55 11.2 °C 8.9 °C 1026.3 hPa Calm     86 % 0.0 mm 0.0 W/m2 CLR
06:00 11.2 °C 8.9 °C 1026.6 hPa Calm     86 % 0.0 mm 0.0 W/m2 CLR
06:05 11.2 °C 8.9 °C 1026.6 hPa Calm     86 % 0.0 mm 0.0 W/m2 CLR
06:10 11.2 °C 8.8 °C 1026.3 hPa Calm     85 % 0.0 mm 0.0 W/m2 CLR
06:15 11.1 °C 8.7 °C 1026.6 hPa Calm     85 % 0.0 mm 0.0 W/m2 CLR
06:20 11.0 °C 8.6 °C 1026.6 hPa Calm     85 % 0.0 mm 0.0 W/m2 CLR
06:25 11.1 °C 8.8 °C 1026.6 hPa Calm     86 % 0.0 mm 0.0 W/m2 CLR
06:30 11.1 °C 8.8 °C 1026.6 hPa Calm     86 % 0.0 mm 0.0 W/m2 CLR
06:35 11.1 °C 8.8 °C 1026.6 hPa Calm     86 % 0.0 mm 5.0 W/m2 OVC
06:40 11.1 °C 8.8 °C 1026.6 hPa Calm     86 % 0.0 mm 5.0 W/m2 OVC
06:45 11.1 °C 8.8 °C 1026.6 hPa Calm     86 % 0.0 mm 7.0 W/m2 BKN
06:50 11.1 °C 8.8 °C 1026.6 hPa Calm     86 % 0.0 mm 12.0 W/m2 BKN
06:55 11.1 °C 8.8 °C 1027.0 hPa Calm     86 % 0.0 mm 16.0 W/m2 BKN
07:00 11.1 °C 8.8 °C 1027.0 hPa Calm     86 % 0.0 mm 19.0 W/m2 BKN
07:05 11.1 °C 8.8 °C 1027.0 hPa Calm     86 % 0.0 mm 21.0 W/m2 BKN
07:10 11.2 °C 8.9 °C 1027.0 hPa Calm     86 % 0.0 mm 26.0 W/m2 BKN
07:15 11.4 °C 9.1 °C 1027.0 hPa Calm     86 % 0.0 mm 33.0 W/m2 BKN
07:20 11.5 °C 9.1 °C 1027.0 hPa Calm     85 % 0.0 mm 42.0 W/m2 BKN
07:25 11.6 °C 9.2 °C 1027.0 hPa Calm     85 % 0.0 mm 49.0 W/m2 SCT
07:30 11.7 °C 9.3 °C 1027.0 hPa Calm     85 % 0.0 mm 63.0 W/m2 SCT
07:35 11.9 °C 9.4 °C 1027.3 hPa Calm     85 % 0.0 mm 72.0 W/m2 FEW
07:40 12.2 °C 9.7 °C 1027.3 hPa Calm     85 % 0.0 mm 84.0 W/m2 FEW
07:45 12.4 °C 9.6 °C 1027.3 hPa Calm     83 % 0.0 mm 93.0 W/m2 FEW
07:50 12.7 °C 9.8 °C 1027.3 hPa Calm     83 % 0.0 mm 113.0 W/m2 CLR
07:55 12.8 °C 9.8 °C 1027.3 hPa Calm     82 % 0.0 mm 125.0 W/m2 CLR
08:00 13.2 °C 10.2 °C 1027.3 hPa Calm     82 % 0.0 mm 149.0 W/m2 CLR
08:05 13.6 °C 10.4 °C 1027.3 hPa Calm     81 % 0.0 mm 178.0 W/m2 CLR
08:10 14.0 °C 10.4 °C 1027.3 hPa Calm     79 % 0.0 mm 190.0 W/m2 CLR
08:15 14.2 °C 10.4 °C 1027.3 hPa Calm     78 % 0.0 mm 188.0 W/m2 CLR
08:20 14.6 °C 10.6 °C 1027.3 hPa Calm     77 % 0.0 mm 202.0 W/m2 CLR
08:26 14.9 °C 10.7 °C 1027.3 hPa Calm     76 % 0.0 mm 209.0 W/m2 CLR
08:31 15.3 °C 10.9 °C 1027.3 hPa Calm     75 % 0.0 mm 223.0 W/m2 CLR
08:36 15.8 °C 11.2 °C 1027.3 hPa Calm     74 % 0.0 mm 239.0 W/m2 CLR
08:41 16.3 °C 11.4 °C 1027.3 hPa Calm     73 % 0.0 mm 257.0 W/m2 CLR
08:46 16.7 °C 11.4 °C 1027.3 hPa Calm     71 % 0.0 mm 272.0 W/m2 CLR
08:51 17.1 °C 11.6 °C 1027.3 hPa Calm     70 % 0.0 mm 285.0 W/m2 CLR
08:56 17.6 °C 11.8 °C 1027.3 hPa Calm     69 % 0.0 mm 339.0 W/m2 CLR
09:01 18.1 °C 12.1 °C 1027.3 hPa Calm     68 % 0.0 mm 357.0 W/m2 CLR
09:06 18.6 °C 12.1 °C 1027.3 hPa Calm     66 % 0.0 mm 336.0 W/m2 CLR
09:11 19.1 °C 12.1 °C 1027.3 hPa Calm     64 % 0.0 mm 295.0 W/m2 CLR
09:16 19.4 °C 12.2 °C 1027.3 hPa Calm     63 % 0.0 mm 345.0 W/m2 CLR
09:21 19.5 °C 12.3 °C 1027.3 hPa Calm     63 % 0.0 mm 396.0 W/m2 CLR
09:26 20.1 °C 12.3 °C 1027.3 hPa Calm     61 % 0.0 mm 413.0 W/m2 CLR
09:31 20.3 °C 12.1 °C 1027.3 hPa Calm     59 % 0.0 mm 378.0 W/m2 CLR
09:36 20.4 °C 12.4 °C 1027.3 hPa Calm     60 % 0.0 mm 450.0 W/m2 CLR
09:41 20.6 °C 12.6 °C 1027.3 hPa Calm     60 % 0.0 mm 339.0 W/m2 CLR
09:46 20.7 °C 12.1 °C 1027.3 hPa Calm     58 % 0.0 mm 107.0 W/m2 CLR
09:51 20.8 °C 12.0 °C 1027.3 hPa Calm     57 % 0.0 mm 483.0 W/m2 CLR
09:56 21.0 °C 12.2 °C 1027.3 hPa Calm     57 % 0.0 mm 504.0 W/m2 CLR
10:01 21.3 °C 12.2 °C 1027.3 hPa Calm     56 % 0.0 mm 534.0 W/m2 CLR
10:06 21.5 °C 12.1 °C 1027.3 hPa Calm     55 % 0.0 mm 533.0 W/m2 CLR
10:11 21.8 °C 12.4 °C 1027.3 hPa Calm     55 % 0.0 mm 554.0 W/m2 CLR
10:16 22.2 °C 12.4 °C 1027.3 hPa Calm     54 % 0.0 mm 552.0 W/m2 CLR
10:21 22.3 °C 11.9 °C 1027.3 hPa ENE 5.6 km/h 5.6 km/h 52 % 0.0 mm 571.0 W/m2 CLR
10:26 22.3 °C 12.2 °C 1027.3 hPa Calm     53 % 0.0 mm 599.0 W/m2 CLR
10:31 22.4 °C 12.4 °C 1027.3 hPa ENE 4.8 km/h   53 % 0.0 mm 643.0 W/m2 CLR
10:36 22.7 °C 12.3 °C 1027.3 hPa ENE 1.9 km/h 1.9 km/h 52 % 0.0 mm 652.0 W/m2 CLR
10:41 22.9 °C 12.2 °C 1027.3 hPa Calm     51 % 0.0 mm 631.0 W/m2 CLR
10:46 23.2 °C 12.2 °C 1027.3 hPa ENE 1.9 km/h   50 % 0.0 mm 686.0 W/m2 CLR
10:51 23.5 °C 12.5 °C 1027.3 hPa NE 7.4 km/h 7.4 km/h 50 % 0.0 mm 650.0 W/m2 CLR
10:56 23.6 °C 12.2 °C 1027.0 hPa ENE 5.6 km/h 5.6 km/h 49 % 0.0 mm 663.0 W/m2 CLR
11:01 23.6 °C 12.3 °C 1027.0 hPa ENE 7.4 km/h   49 % 0.0 mm 693.0 W/m2 CLR
11:06 23.8 °C 12.7 °C 1027.0 hPa ENE 3.2 km/h 3.2 km/h 50 % 0.0 mm 691.0 W/m2 CLR
11:11 23.9 °C 12.2 °C 1027.0 hPa ENE 5.6 km/h   48 % 0.0 mm 733.0 W/m2 CLR
11:16 23.9 °C 11.9 °C 1027.0 hPa NE 7.4 km/h 7.4 km/h 47 % 0.0 mm 738.0 W/m2 CLR
11:21 24.0 °C 12.0 °C 1027.0 hPa Calm     47 % 0.0 mm 737.0 W/m2 CLR
11:26 24.4 °C 12.3 °C 1027.0 hPa ENE 4.8 km/h 4.8 km/h 47 % 0.0 mm 765.0 W/m2 CLR
11:31 24.8 °C 12.4 °C 1027.0 hPa Calm     46 % 0.0 mm 761.0 W/m2 CLR
11:36 25.1 °C 12.0 °C 1027.0 hPa East 4.8 km/h 4.8 km/h 44 % 0.0 mm 728.0 W/m2 CLR
11:41 25.1 °C 12.0 °C 1027.0 hPa East 6.4 km/h 6.4 km/h 44 % 0.0 mm 703.0 W/m2 CLR
11:46 25.1 °C 12.3 °C 1027.0 hPa NE 5.6 km/h 5.6 km/h 45 % 0.0 mm 796.0 W/m2 CLR
11:51 25.2 °C 12.4 °C 1027.0 hPa ENE 11.1 km/h 11.1 km/h 45 % 0.0 mm 803.0 W/m2 CLR
11:56 25.2 °C 12.1 °C 1027.0 hPa North 9.3 km/h 9.3 km/h 44 % 0.0 mm 775.0 W/m2 CLR
12:01 25.2 °C 12.4 °C 1026.6 hPa Calm     45 % 0.0 mm 838.0 W/m2 CLR
12:06 25.6 °C 12.8 °C 1026.6 hPa ENE 9.3 km/h   45 % 0.0 mm 856.0 W/m2 CLR
12:11 25.9 °C 12.7 °C 1026.6 hPa NNE 14.8 km/h 14.8 km/h 44 % 0.0 mm 881.0 W/m2 CLR
12:16 25.9 °C 13.1 °C 1026.6 hPa ENE 11.3 km/h 11.3 km/h 45 % 0.0 mm 847.0 W/m2 CLR
12:21 26.1 °C 12.6 °C 1026.6 hPa ENE 14.8 km/h 14.8 km/h 43 % 0.0 mm 844.0 W/m2 CLR
12:26 26.1 °C 12.6 °C 1026.6 hPa ENE 16.7 km/h 16.7 km/h 43 % 0.0 mm 816.0 W/m2 CLR
12:31 26.2 °C 12.7 °C 1026.6 hPa NNE 11.1 km/h 11.1 km/h 43 % 0.0 mm 861.0 W/m2 CLR
12:36 26.4 °C 12.1 °C 1026.6 hPa NNE 7.4 km/h 7.4 km/h 41 % 0.0 mm 886.0 W/m2 CLR
12:41 26.7 °C 12.3 °C 1026.6 hPa NE 11.1 km/h 11.1 km/h 41 % 0.0 mm 870.0 W/m2 CLR
12:46 26.8 °C 11.7 °C 1026.6 hPa NE 6.4 km/h 6.4 km/h 39 % 0.0 mm 858.0 W/m2 CLR
12:51 26.8 °C 12.1 °C 1026.3 hPa NE 9.3 km/h 9.3 km/h 40 % 0.0 mm 904.0 W/m2 CLR
12:56 27.2 °C 11.7 °C 1026.3 hPa ENE 7.4 km/h   38 % 0.0 mm 907.0 W/m2 CLR
13:01 27.5 °C 11.9 °C 1026.3 hPa NE 6.4 km/h 6.4 km/h 38 % 0.0 mm 918.0 W/m2 CLR
13:06 27.8 °C 11.4 °C 1026.3 hPa ENE 5.6 km/h 5.6 km/h 36 % 0.0 mm 914.0 W/m2 CLR
13:07 27.8 °C 11.4 °C 1026.3 hPa Calm     36 % 0.0 mm 918.0 W/m2 CLR
13:12 27.9 °C 11.0 °C 1026.3 hPa ENE 13.0 km/h 13.0 km/h 35 % 0.0 mm 921.0 W/m2 CLR
13:18 27.9 °C 11.1 °C 1026.3 hPa ENE 18.5 km/h 18.5 km/h 35 % 0.0 mm 923.0 W/m2 CLR
13:23 27.7 °C 10.8 °C 1026.3 hPa NE 14.8 km/h 14.8 km/h 35 % 0.0 mm 925.0 W/m2 CLR
13:28 27.7 °C 10.4 °C 1026.0 hPa North 14.8 km/h 14.8 km/h 34 % 0.0 mm 932.0 W/m2 CLR
13:33 27.6 °C 11.2 °C 1026.0 hPa ENE 3.2 km/h 3.9 km/h 36 % 0.0 mm 939.0 W/m2 CLR
13:38 27.6 °C 10.8 °C 1026.0 hPa NE 3.7 km/h 3.7 km/h 35 % 0.0 mm 965.0 W/m2 CLR
13:43 27.7 °C 10.9 °C 1026.0 hPa WNW 4.8 km/h 4.8 km/h 35 % 0.0 mm 970.0 W/m2 CLR
13:48 28.1 °C 9.8 °C 1026.0 hPa NNE 7.4 km/h 7.4 km/h 32 % 0.0 mm 988.0 W/m2 CLR
13:49 28.0 °C 10.2 °C 1026.0 hPa NNE 9.3 km/h 9.3 km/h 33 % 0.0 mm 142.0 W/m2 CLR
13:54 27.7 °C 10.4 °C 1026.0 hPa NW 9.3 km/h 9.3 km/h 34 % 0.0 mm 983.0 W/m2 CLR
13:59 27.8 °C 9.6 °C 1026.0 hPa North 9.3 km/h 9.3 km/h 32 % 0.0 mm 155.0 W/m2 CLR
14:04 27.4 °C 9.3 °C 1025.6 hPa NNE 9.3 km/h 9.3 km/h 32 % 0.0 mm 190.0 W/m2 CLR
14:09 27.8 °C 8.6 °C 1025.6 hPa NNE 9.3 km/h 9.3 km/h 30 % 0.0 mm 1002.0 W/m2 CLR
14:14 28.2 °C 8.4 °C 1025.6 hPa North 7.4 km/h 7.4 km/h 29 % 0.0 mm 976.0 W/m2 CLR
14:19 28.3 °C 8.6 °C 1025.3 hPa WSW 11.1 km/h 11.1 km/h 29 % 0.0 mm 963.0 W/m2 CLR
14:24 28.6 °C 8.8 °C 1025.3 hPa West 5.6 km/h 5.6 km/h 29 % 0.0 mm 969.0 W/m2 CLR
14:29 28.9 °C 10.1 °C 1025.3 hPa East 18.5 km/h 18.5 km/h 31 % 0.0 mm 942.0 W/m2 CLR
14:34 28.7 °C 9.9 °C 1025.3 hPa ENE 11.1 km/h 11.1 km/h 31 % 0.0 mm 926.0 W/m2 CLR
14:39 28.7 °C 10.4 °C 1025.3 hPa NE 11.1 km/h 11.1 km/h 32 % 0.0 mm 919.0 W/m2 CLR
14:44 28.8 °C 10.4 °C 1025.3 hPa ESE 9.3 km/h 9.3 km/h 32 % 0.0 mm 923.0 W/m2 CLR
14:49 28.6 °C 9.8 °C 1025.3 hPa East 11.1 km/h 11.1 km/h 31 % 0.0 mm 916.0 W/m2 CLR
14:54 28.5 °C 9.7 °C 1025.3 hPa East 16.1 km/h 16.1 km/h 31 % 0.0 mm 923.0 W/m2 CLR
14:59 28.4 °C 9.7 °C 1024.9 hPa NNE 13.0 km/h 13.0 km/h 31 % 0.0 mm 930.0 W/m2 CLR
15:04 28.7 °C 9.4 °C 1024.9 hPa SE 11.1 km/h 11.1 km/h 30 % 0.0 mm 930.0 W/m2 CLR
15:09 29.0 °C 9.7 °C 1024.9 hPa NE 5.6 km/h 5.6 km/h 30 % 0.0 mm 942.0 W/m2 CLR
15:14 29.6 °C 9.7 °C 1024.9 hPa North 16.7 km/h 16.7 km/h 29 % 0.0 mm 956.0 W/m2 CLR
15:19 29.4 °C 9.5 °C 1024.9 hPa ENE 12.9 km/h 12.9 km/h 29 % 0.0 mm 921.0 W/m2 CLR
15:24 28.9 °C 9.1 °C 1024.9 hPa ENE 14.8 km/h 14.8 km/h 29 % 0.0 mm 937.0 W/m2 CLR
15:29 28.9 °C 9.1 °C 1024.9 hPa ESE 16.1 km/h 16.1 km/h 29 % 0.0 mm 905.0 W/m2 CLR
15:34 28.7 °C 9.4 °C 1024.6 hPa East 7.4 km/h 7.4 km/h 30 % 0.0 mm 882.0 W/m2 CLR
15:39 28.7 °C 9.4 °C 1024.6 hPa ESE 16.7 km/h 16.7 km/h 30 % 0.0 mm 846.0 W/m2 CLR
15:44 28.9 °C 9.6 °C 1024.6 hPa ESE 19.3 km/h 19.3 km/h 30 % 0.0 mm 874.0 W/m2 CLR
15:49 28.9 °C 9.6 °C 1024.3 hPa ENE 14.8 km/h 14.8 km/h 30 % 0.0 mm 830.0 W/m2 CLR
15:54 28.8 °C 9.0 °C 1024.6 hPa ESE 5.6 km/h 5.6 km/h 29 % 0.0 mm 828.0 W/m2 CLR
15:59 29.0 °C 9.2 °C 1024.3 hPa East 18.5 km/h 18.5 km/h 29 % 0.0 mm 810.0 W/m2 CLR
16:04 28.7 °C 9.4 °C 1024.3 hPa Calm     30 % 0.0 mm 795.0 W/m2 CLR
16:09 28.7 °C 8.9 °C 1024.3 hPa ESE 13.0 km/h 13.0 km/h 29 % 0.0 mm 786.0 W/m2 CLR
16:14 28.8 °C 8.9 °C 1024.3 hPa East 5.6 km/h 5.6 km/h 29 % 0.0 mm 742.0 W/m2 CLR
16:19 28.9 °C 9.1 °C 1024.3 hPa ENE 5.6 km/h 5.6 km/h 29 % 0.0 mm 664.0 W/m2 CLR
16:24 29.3 °C 9.9 °C 1024.3 hPa NNE 1.9 km/h 1.9 km/h 30 % 0.0 mm 729.0 W/m2 CLR
16:29 29.6 °C 9.7 °C 1024.3 hPa East 5.6 km/h 5.6 km/h 29 % 0.0 mm 742.0 W/m2 CLR
16:34 29.6 °C 10.2 °C 1023.9 hPa SSE 11.1 km/h 11.1 km/h 30 % 0.0 mm 689.0 W/m2 CLR
16:39 29.2 °C 9.8 °C 1023.9 hPa SE 8.0 km/h 8.0 km/h 30 % 0.0 mm 577.0 W/m2 CLR
16:44 28.9 °C 10.1 °C 1023.9 hPa East 5.6 km/h 5.6 km/h 31 % 0.0 mm 529.0 W/m2 CLR
16:49 29.0 °C 10.6 °C 1023.9 hPa ESE 12.9 km/h 12.9 km/h 32 % 0.0 mm 455.0 W/m2 CLR
16:54 28.6 °C 10.3 °C 1023.9 hPa ESE 18.5 km/h 18.5 km/h 32 % 0.0 mm 462.0 W/m2 CLR
16:59 28.4 °C 10.6 °C 1023.9 hPa East 16.7 km/h 16.7 km/h 33 % 0.0 mm 436.0 W/m2 CLR
17:04 28.1 °C 10.7 °C 1023.9 hPa ESE 18.5 km/h 18.5 km/h 34 % 0.0 mm 439.0 W/m2 CLR
17:09 27.9 °C 10.6 °C 1023.9 hPa ESE 25.9 km/h 25.9 km/h 34 % 0.0 mm 462.0 W/m2 CLR
17:14 27.8 °C 10.5 °C 1023.9 hPa SE 22.2 km/h 22.2 km/h 34 % 0.0 mm 401.0 W/m2 CLR
17:19 27.7 °C 10.9 °C 1023.9 hPa SSE 18.5 km/h 18.5 km/h 35 % 0.0 mm 338.0 W/m2 CLR
17:24 27.7 °C 10.9 °C 1023.9 hPa East 14.8 km/h 14.8 km/h 35 % 0.0 mm 322.0 W/m2 CLR
17:29 27.8 °C 10.9 °C 1023.9 hPa SSE 20.9 km/h 20.9 km/h 35 % 0.0 mm 313.0 W/m2 CLR
17:34 27.7 °C 11.7 °C 1023.9 hPa SE 20.9 km/h 20.9 km/h 37 % 0.0 mm 302.0 W/m2 CLR
17:39 27.2 °C 12.1 °C 1023.9 hPa SE 20.4 km/h 20.4 km/h 39 % 0.0 mm 302.0 W/m2 CLR
17:40 27.2 °C 12.1 °C 1023.9 hPa ESE 20.4 km/h 20.4 km/h 39 % 0.0 mm 294.0 W/m2 CLR
17:45 27.3 °C 12.1 °C 1023.9 hPa ESE 20.9 km/h 20.9 km/h 39 % 0.0 mm 290.0 W/m2 CLR
17:50 27.1 °C 11.9 °C 1023.6 hPa SE 24.1 km/h 24.1 km/h 39 % 0.0 mm 283.0 W/m2 CLR
17:55 27.1 °C 12.3 °C 1023.6 hPa SSE 24.1 km/h 24.1 km/h 40 % 0.0 mm 302.0 W/m2 CLR
18:00 26.9 °C 12.2 °C 1023.9 hPa SE 20.4 km/h 20.4 km/h 40 % 0.0 mm 299.0 W/m2 CLR
18:05 26.9 °C 12.5 °C 1023.9 hPa SE 20.4 km/h 20.4 km/h 41 % 0.0 mm 304.0 W/m2 CLR
18:10 26.8 °C 12.1 °C 1023.6 hPa SE 24.1 km/h 24.1 km/h 40 % 0.0 mm 294.0 W/m2 CLR
18:15 26.7 °C 12.4 °C 1023.6 hPa ESE 18.5 km/h 18.5 km/h 41 % 0.0 mm 380.0 W/m2 CLR
18:20 26.9 °C 12.2 °C 1023.6 hPa ESE 18.5 km/h 18.5 km/h 40 % 0.0 mm 343.0 W/m2 CLR
18:25 26.9 °C 12.5 °C 1023.6 hPa SE 16.7 km/h 16.7 km/h 41 % 0.0 mm 341.0 W/m2 CLR
18:30 26.8 °C 12.1 °C 1023.6 hPa SSE 20.9 km/h 20.9 km/h 40 % 0.0 mm 299.0 W/m2 CLR
18:35 26.6 °C 11.9 °C 1023.6 hPa SE 24.1 km/h 24.1 km/h 40 % 0.0 mm 320.0 W/m2 CLR
18:40 26.6 °C 11.8 °C 1023.6 hPa South 18.5 km/h 18.5 km/h 40 % 0.0 mm 309.0 W/m2 CLR
18:45 26.6 °C 12.3 °C 1023.6 hPa SSE 18.5 km/h 18.5 km/h 41 % 0.0 mm 283.0 W/m2 CLR
18:50 26.6 °C 12.3 °C 1023.6 hPa SSE 14.8 km/h 14.8 km/h 41 % 0.0 mm 258.0 W/m2 CLR
18:55 26.6 °C 11.8 °C 1023.6 hPa SSE 20.4 km/h 20.4 km/h 40 % 0.0 mm 234.0 W/m2 CLR
19:00 26.6 °C 11.8 °C 1023.6 hPa SSE 22.2 km/h 22.2 km/h 40 % 0.0 mm 213.0 W/m2 CLR
19:05 26.5 °C 11.8 °C 1023.6 hPa SE 18.5 km/h 18.5 km/h 40 % 0.0 mm 206.0 W/m2 CLR
19:10 26.5 °C 12.2 °C 1023.6 hPa SE 18.5 km/h 18.5 km/h 41 % 0.0 mm 206.0 W/m2 CLR
19:15 26.6 °C 12.2 °C 1023.6 hPa SE 13.0 km/h 13.0 km/h 41 % 0.0 mm 251.0 W/m2 CLR
19:20 26.7 °C 12.4 °C 1023.6 hPa South 14.8 km/h 14.8 km/h 41 % 0.0 mm 244.0 W/m2 CLR
19:25 26.7 °C 12.3 °C 1023.6 hPa SSE 18.5 km/h 18.5 km/h 41 % 0.0 mm 190.0 W/m2 CLR
19:31 26.6 °C 12.2 °C 1023.6 hPa SSE 18.5 km/h 18.5 km/h 41 % 0.0 mm 172.0 W/m2 CLR
19:35 26.3 °C 12.0 °C 1023.6 hPa SSE 18.5 km/h 18.5 km/h 41 % 0.0 mm 151.0 W/m2 CLR
19:40 26.3 °C 12.0 °C 1023.6 hPa SSW 22.2 km/h 22.2 km/h 41 % 0.0 mm 137.0 W/m2 CLR
19:45 26.2 °C 11.9 °C 1023.6 hPa South 14.8 km/h 14.8 km/h 41 % 0.0 mm 125.0 W/m2 CLR
19:50 26.1 °C 11.8 °C 1023.6 hPa South 18.5 km/h 18.5 km/h 41 % 0.0 mm 107.0 W/m2 CLR
19:56 26.0 °C 11.7 °C 1023.6 hPa South 16.7 km/h 16.7 km/h 41 % 0.0 mm 91.0 W/m2 CLR
20:01 25.8 °C 11.6 °C 1023.6 hPa South 14.8 km/h 14.8 km/h 41 % 0.0 mm 81.0 W/m2 CLR
20:06 25.7 °C 11.5 °C 1023.6 hPa SSW 18.5 km/h 18.5 km/h 41 % 0.0 mm 67.0 W/m2 FEW
20:11 25.6 °C 11.3 °C 1023.9 hPa South 22.2 km/h 22.2 km/h 41 % 0.0 mm 58.0 W/m2 SCT
20:16 25.4 °C 11.2 °C 1023.9 hPa South 18.5 km/h 18.5 km/h 41 % 0.0 mm 54.0 W/m2 SCT
20:21 25.3 °C 11.1 °C 1023.9 hPa South 14.8 km/h 14.8 km/h 41 % 0.0 mm 53.0 W/m2 SCT
20:26 25.2 °C 11.4 °C 1023.9 hPa South 20.4 km/h 20.4 km/h 42 % 0.0 mm 54.0 W/m2 SCT
20:31 25.2 °C 11.3 °C 1023.9 hPa South 16.7 km/h 16.7 km/h 42 % 0.0 mm 47.0 W/m2 SCT
20:36 25.1 °C 11.2 °C 1023.9 hPa SSE 14.5 km/h 14.5 km/h 42 % 0.0 mm 40.0 W/m2 BKN
20:41 24.9 °C 11.2 °C 1023.9 hPa South 12.9 km/h 12.9 km/h 42 % 0.0 mm 35.0 W/m2 BKN
20:46 24.8 °C 11.1 °C 1024.3 hPa SSE 13.0 km/h 13.0 km/h 42 % 0.0 mm 28.0 W/m2 BKN
20:51 24.7 °C 10.6 °C 1024.3 hPa South 11.1 km/h 11.1 km/h 41 % 0.0 mm 23.0 W/m2 BKN
20:56 24.6 °C 10.4 °C 1024.3 hPa South 16.7 km/h 16.7 km/h 41 % 0.0 mm 18.0 W/m2 BKN
20:57 24.6 °C 10.4 °C 1024.3 hPa SSE 11.1 km/h 11.1 km/h 41 % 0.0 mm 16.0 W/m2 BKN
21:02 24.4 °C 10.3 °C 1024.3 hPa South 18.5 km/h 18.5 km/h 41 % 0.0 mm 12.0 W/m2 BKN
21:07 24.3 °C 9.9 °C 1024.3 hPa South 18.5 km/h 18.5 km/h 40 % 0.0 mm 9.0 W/m2 BKN
21:12 24.2 °C 9.8 °C 1024.3 hPa South 13.0 km/h 13.0 km/h 40 % 0.0 mm 0.0 W/m2 OVC
21:17 24.2 °C 9.7 °C 1024.6 hPa SSE 14.8 km/h 14.8 km/h 40 % 0.0 mm 5.0 W/m2 OVC
21:22 24.1 °C 9.6 °C 1024.6 hPa South 13.0 km/h 13.0 km/h 40 % 0.0 mm 0.0 W/m2 CLR
21:27 23.9 °C 9.4 °C 1024.6 hPa SSE 9.3 km/h 9.3 km/h 40 % 0.0 mm 0.0 W/m2 CLR
21:32 23.8 °C 9.7 °C 1024.6 hPa SSE 9.3 km/h 9.3 km/h 41 % 0.0 mm 0.0 W/m2 CLR
21:37 23.7 °C 9.6 °C 1024.6 hPa South 6.4 km/h 6.4 km/h 41 % 0.0 mm 0.0 W/m2 CLR
21:42 23.6 °C 9.6 °C 1024.6 hPa SSW 5.6 km/h 5.6 km/h 41 % 0.0 mm 0.0 W/m2 CLR
21:47 23.4 °C 9.7 °C 1024.6 hPa SSE 6.4 km/h 6.4 km/h 42 % 0.0 mm 0.0 W/m2 CLR
21:52 23.3 °C 9.3 °C 1024.6 hPa SSE 6.4 km/h 6.4 km/h 41 % 0.0 mm 0.0 W/m2 CLR
21:57 23.2 °C 9.6 °C 1024.6 hPa South 9.3 km/h 9.3 km/h 42 % 0.0 mm 0.0 W/m2 CLR
21:58 23.2 °C 9.6 °C 1024.6 hPa South 9.3 km/h 9.3 km/h 42 % 0.0 mm 0.0 W/m2 CLR
22:03 23.1 °C 9.5 °C 1024.6 hPa South 7.4 km/h 7.4 km/h 42 % 0.0 mm 0.0 W/m2 CLR
22:08 23.0 °C 9.4 °C 1024.6 hPa South 8.0 km/h 8.0 km/h 42 % 0.0 mm 0.0 W/m2 CLR
22:13 22.9 °C 9.3 °C 1024.6 hPa South 7.4 km/h 7.4 km/h 42 % 0.0 mm 0.0 W/m2 CLR
22:18 22.9 °C 9.3 °C 1024.9 hPa South 7.4 km/h 7.4 km/h 42 % 0.0 mm 0.0 W/m2 CLR
22:23 22.8 °C 9.2 °C 1024.9 hPa South 5.6 km/h 5.6 km/h 42 % 0.0 mm 0.0 W/m2 CLR
22:28 22.6 °C 9.1 °C 1024.9 hPa Calm     42 % 0.0 mm 0.0 W/m2 CLR
22:33 22.5 °C 9.3 °C 1024.9 hPa Calm     43 % 0.0 mm 0.0 W/m2 CLR
22:38 22.3 °C 9.4 °C 1024.9 hPa Calm     44 % 0.0 mm 0.0 W/m2 CLR
22:43 22.0 °C 9.2 °C 1024.9 hPa Calm     44 % 0.0 mm 0.0 W/m2 CLR
22:48 21.8 °C 9.4 °C 1025.3 hPa Calm     45 % 0.0 mm 0.0 W/m2 CLR
22:53 21.7 °C 9.2 °C 1025.3 hPa Calm     45 % 0.0 mm 0.0 W/m2 CLR
22:58 21.4 °C 9.3 °C 1024.9 hPa Calm     46 % 0.0 mm 0.0 W/m2 CLR
23:03 21.3 °C 9.5 °C 1025.3 hPa Calm     47 % 0.0 mm 0.0 W/m2 CLR
23:08 21.1 °C 9.3 °C 1025.3 hPa Calm     47 % 0.0 mm 0.0 W/m2 CLR
23:13 21.0 °C 9.3 °C 1025.3 hPa Calm     47 % 0.0 mm 0.0 W/m2 CLR
23:18 20.9 °C 9.2 °C 1025.3 hPa Calm     47 % 0.0 mm 0.0 W/m2 CLR
23:23 20.8 °C 9.1 °C 1025.3 hPa Calm     47 % 0.0 mm 0.0 W/m2 CLR
23:28 20.8 °C 9.1 °C 1025.3 hPa Calm     47 % 0.0 mm 0.0 W/m2 CLR
23:33 20.8 °C 9.1 °C 1025.3 hPa Calm     47 % 0.0 mm 0.0 W/m2 CLR
23:38 20.7 °C 9.0 °C 1025.3 hPa Calm     47 % 0.0 mm 0.0 W/m2 CLR
23:43 20.7 °C 8.9 °C 1025.3 hPa Calm     47 % 0.0 mm 0.0 W/m2 CLR
23:49 20.8 °C 8.7 °C 1025.3 hPa Calm     46 % 0.0 mm 0.0 W/m2 CLR
23:54 20.8 °C 8.8 °C 1025.3 hPa Calm     46 % 0.0 mm 0.0 W/m2 CLR
23:59 20.8 °C 9.1 °C 1025.3 hPa Calm     47 % 0.0 mm 0.0 W/m2 CLR
Lo Temps de Massalio
Compliments of Weather Underground - 1.25 mb